SCP
0 0 0 0 0 0 0 0 0 0 0 0 0 0 0 0 0 0 0 0 1 1 1 1 1 1 1 1 1 1 1 1 1 1 1 1 1 1 1 1 1 1 1 1
0 0 0 0 0 0 0 0 0 0 0 0 0 0 0 0 0 0 0 0 1 1 1 1 1 1 1 1 1 1 1 1 1 1 1 1 1 1 1 1 1 1 1 1
0 0 0 0 0 0 0 0 0 0 0 0 0 0 0 0 0 0 0 0 1 1 1 1 1 1 1 1 1 1 1 1 1 1 1 1 1 1 1 1 1 1 1 1
-0 0 0 0 0 0 0 0 0 0 0 0 0 0 0 0 0 0 0 0 0 1 1 1 1 1 1 1 1 1 2 2 1 1 1 1 1 1 1 1 1 1 1 1
-0 0 0 0 0 0 0 0 0 0 0 0 0 0 0 0 0 0 0 0 0 1 1 1 1 1 1 1 1 2 2 2 2 1 1 1 1 1 1 1 1 1 1 1
0 0 0 0 0 0 0 0 0 0 0 0 0 0 0 0 0 0 0 0 1 1 1 1 1 1 1 1 1 2 2 2 2 1 1 1 1 1 1 1 1 1 1 1
0 0 0 0 0 0 0 0 0 0 0 0 0 0 0 0 0 0 0 1 1 1 1 1 1 1 1 1 2 2 2 2 2 1 1 1 1 1 1 1 1 1 1 1
0 0 0 0 0 0 0 0 0 0 0 0 0 0 0 0 0 0 0 1 1 1 1 1 2 2 2 2 2 2 2 2 2 2 1 1 1 1 1 1 1 1 1 1
0 0 0 0 0 0 0 0 0 0 0 0 0 0 0 0 0 0 0 0 1 1 1 1 1 2 2 2 2 2 3 2 2 2 1 1 1 1 1 1 1 1 1 1
0 0 0 0 0 0 0 0 0 0 0 0 0 0 1 1 1 0 0 0 1 1 1 1 1 1 1 2 2 2 3 2 2 2 1 1 1 1 1 1 1 1 1 1
0 0 0 0 0 0 0 0 0 0 0 0 0 0 1 1 1 1 1 1 1 1 1 1 1 1 1 1 2 2 2 2 2 2 2 1 1 1 1 1 1 1 1 1
0 0 0 0 0 0 0 0 0 0 0 0 0 0 1 1 1 1 1 1 1 1 1 1 2 2 2 2 2 2 2 2 2 2 2 2 2 2 2 2 2 2 2 2
0 0 0 0 0 0 0 0 0 0 0 0 0 0 1 1 1 1 1 1 1 1 2 2 2 2 2 2 2 2 2 2 2 2 2 2 2 2 2 2 2 2 2 2
0 0 0 0 0 0 0 0 0 0 0 0 0 0 1 1 1 1 1 1 1 2 2 2 3 3 3 3 3 2 2 2 2 2 2 2 2 2 2 2 2 2 2 2
0 0 0 0 0 0 0 0 0 0 0 0 0 0 1 1 1 1 1 1 1 2 2 3 3 3 3 3 3 3 2 2 2 2 2 2 2 2 2 2 2 2 2 2
0 0 0 0 0 0 0 0 0 0 0 0 0 1 1 1 1 1 1 1 2 2 2 3 3 3 3 3 3 3 3 3 3 3 3 3 2 2 2 2 2 2 2 2
0 0 0 0 0 0 0 0 0 0 0 0 0 1 1 1 1 1 1 1 2 2 2 3 3 3 3 3 3 3 3 3 3 3 3 3 3 3 3 3 3 3 3 3
0 0 0 0 0 0 0 0 0 0 0 0 0 1 1 1 1 1 1 1 2 2 2 3 3 3 3 3 3 3 3 3 3 3 3 3 3 3 3 3 3 3 3 3
0 0 0 0 0 0 0 0 0 0 0 0 0 1 1 1 1 1 1 1 2 2 3 3 3 3 3 3 3 3 3 3 3 3 3 4 4 3 3 3 4 4 4 4
0 0 0 0 0 0 0 0 0 0 0 1 1 1 1 1 1 1 1 2 2 2 2 3 2 3 3 3 4 4 3 3 3 3 4 4 4 4 4 4 4 4 4 4
0 0 0 0 0 0 0 0 0 1 1 1 1 1 1 1 1 2 2 2 2 2 2 2 2 3 3 3 4 4 3 3 4 4 4 4 4 4 4 5 5 4 4 3
0 0 0 0 0 0 0 0 1 1 1 1 1 1 1 1 2 2 2 2 2 2 2 2 2 3 3 3 3 3 4 4 4 4 4 5 4 4 4 5 5 4 3 3
0 0 0 0 0 0 1 1 1 1 1 1 1 1 1 1 2 2 2 2 2 2 2 2 2 3 3 3 3 3 3 4 4 4 5 5 4 4 4 4 4 4 3 2
0 0 0 0 0 1 1 1 1 1 1 1 1 1 1 1 2 2 2 2 2 2 2 2 2 3 3 3 3 3 3 3 4 4 4 4 4 4 4 4 3 3 2 2
0 0 0 0 0 1 1 1 1 1 1 1 1 1 1 1 2 2 2 2 2 2 2 2 2 2 2 2 2 2 2 3 3 3 3 3 3 3 3 3 2 2 2 2
0 0 0 0 0 1 1 1 1 1 1 1 1 1 1 1 1 2 2 2 2 2 2 2 2 2 2 2 2 2 2 2 2 3 3 3 3 3 3 2 2 1 1 1
Wind_Speed
15 14 13 14 12 11 11 9 7 3 4 4 5 7 10 12 13 14 14 14 14 14 14 14 13 13 13 10 9 8 7 7 5 4 4 4 4 3 3 4 5 5 4 4
16 18 17 14 12 13 13 11 9 4 4 5 6 7 9 11 11 13 14 14 15 15 15 14 13 13 13 12 10 9 8 8 7 5 3 3 3 3 3 3 4 5 5 5
21 17 14 14 14 15 13 11 10 8 6 8 7 8 9 11 11 11 13 14 15 16 17 16 15 14 13 13 12 10 9 9 8 6 4 3 3 2 2 3 3 4 5 5
20 19 16 15 15 15 12 12 11 10 8 8 7 7 8 10 11 12 12 13 14 15 16 16 15 14 14 14 13 10 10 8 8 7 6 6 4 4 4 3 3 4 5 5
18 18 16 17 16 15 12 12 11 11 10 11 11 9 6 10 10 11 12 12 13 14 16 17 17 15 14 14 13 11 10 9 8 8 7 6 5 4 3 3 3 3 4 5
19 17 17 17 15 14 12 13 12 12 11 12 12 11 6 5 8 8 10 10 11 13 14 15 16 14 12 13 13 13 11 10 9 8 7 6 5 4 3 3 3 4 3 4
19 19 17 15 16 15 14 12 10 11 10 11 10 10 4 5 7 6 8 9 10 11 12 12 12 13 12 13 13 13 13 11 10 10 8 7 6 5 4 4 4 4 3 3
17 18 19 18 18 15 15 16 12 11 10 9 8 8 5 4 6 6 6 8 9 10 12 12 12 11 10 11 12 12 13 11 11 10 8 7 6 5 5 5 4 4 3 3
15 15 15 16 15 16 16 16 16 14 13 12 8 5 5 4 4 5 5 6 8 8 10 11 12 12 11 10 9 10 11 10 10 10 8 7 7 6 5 5 5 4 3 3
14 15 14 12 13 16 17 15 10 11 11 12 9 7 5 5 4 4 4 5 5 7 9 10 11 11 11 11 9 9 9 9 9 9 8 8 7 7 5 4 4 4 3 3
15 15 15 13 15 16 17 18 14 10 10 11 9 3 3 4 3 4 4 5 5 4 6 8 9 10 10 10 9 9 9 8 8 8 7 6 7 7 6 5 5 4 3 3
12 12 13 15 15 15 16 16 15 11 10 11 10 3 2 4 3 3 4 6 6 5 4 7 8 8 8 8 9 8 9 9 8 8 6 6 5 6 6 6 5 5 4 4
8 9 12 14 14 14 15 16 16 14 11 11 12 5 5 5 4 3 5 6 6 6 5 6 6 6 6 6 7 8 7 8 8 7 7 6 5 5 6 5 5 5 5 4
7 10 13 15 11 10 13 17 16 15 12 12 10 7 5 4 4 4 5 5 6 6 5 5 5 5 4 4 4 5 5 5 6 6 7 6 6 5 5 5 5 5 5 5
7 12 14 17 18 16 14 15 16 16 14 12 8 6 5 3 5 5 5 5 5 5 5 5 5 4 3 3 3 3 3 3 5 6 6 7 6 5 5 5 5 5 5 6
5 9 13 16 19 19 18 17 16 15 14 12 10 5 3 3 3 4 4 5 4 5 5 5 4 3 2 2 2 2 2 3 4 6 6 6 6 5 5 5 5 5 5 4
6 7 10 14 17 18 19 16 16 13 11 10 8 3 3 2 3 4 3 5 5 5 3 3 2 1 2 2 1 2 2 3 3 4 5 5 5 5 6 6 6 5 5 4
7 7 7 12 14 19 12 10 10 10 8 5 2 4 2 1 4 3 4 5 4 3 2 2 3 2 1 1 1 0 1 2 3 3 3 4 5 5 5 5 5 5 4 5
9 7 9 10 15 16 11 9 9 9 5 2 1 1 2 1 2 4 5 5 4 4 4 3 3 3 2 1 1 1 2 2 3 4 3 3 4 5 5 6 5 4 4 4
11 8 9 11 13 12 5 3 4 5 3 3 1 0 1 1 2 2 4 3 4 5 4 3 3 3 2 2 1 2 2 2 3 3 3 3 4 5 5 5 4 4 3 4
11 11 13 14 14 8 4 4 4 5 2 6 5 4 2 3 4 4 3 3 3 4 3 3 3 3 2 2 2 2 3 3 3 2 2 3 3 4 5 4 4 4 5 5
9 10 12 12 14 6 7 4 4 5 5 5 5 5 5 4 4 3 3 3 3 3 4 4 3 3 2 2 2 3 3 3 2 2 3 3 3 4 3 4 4 4 4 5
6 5 4 4 1 4 6 6 6 6 6 5 4 4 4 4 4 4 3 3 3 3 4 4 4 3 3 3 3 3 3 2 2 2 2 3 3 3 3 4 4 3 3 3
4 3 4 3 1 2 4 5 5 6 6 7 6 5 4 4 4 4 2 3 2 3 3 4 4 3 4 3 3 3 3 2 2 3 3 2 2 2 2 3 3 4 3 4
5 5 5 4 3 2 2 4 4 5 6 6 6 6 5 5 5 5 2 2 2 3 3 3 3 3 4 3 3 3 3 2 3 3 3 3 3 2 2 1 1 2 2 3
5 4 5 4 4 3 3 4 5 5 6 7 7 6 6 5 5 5 5 3 3 3 3 3 4 4 4 4 4 3 3 2 3 4 3 3 2 2 2 2 1 2 2 3
Wind_Direction
237 237 241 242 239 247 260 268 269 245 186 208 220 200 172 172 177 172 175 177 178 180 177 171 174 170 168 167 167 172 180 173 181 186 190 189 194 199 190 188 178 186 191 190
240 237 240 247 251 254 256 263 269 251 212 236 241 236 186 174 188 177 178 180 182 179 176 172 177 178 175 172 171 174 180 176 185 189 192 198 198 207 191 188 170 180 186 194
238 241 235 240 243 249 251 256 258 258 243 235 244 246 211 182 183 182 184 183 186 184 178 175 181 184 180 175 177 183 182 179 187 185 187 201 190 219 205 181 180 188 189 195
243 245 241 241 242 247 251 253 257 259 262 266 244 245 216 190 184 185 186 187 188 186 179 176 181 187 184 179 179 177 173 176 180 186 199 198 198 203 206 190 183 186 189 200
244 241 242 243 244 249 257 261 264 264 260 263 260 258 221 187 186 191 186 191 191 185 181 177 182 186 185 181 176 173 170 176 178 188 200 207 211 213 206 186 177 189 195 205
253 249 240 242 246 249 255 257 257 259 258 251 249 254 234 195 185 186 183 188 187 182 181 179 180 176 180 177 174 171 170 175 180 189 197 202 213 220 218 193 179 193 197 203
245 245 241 239 244 238 236 244 247 246 243 246 244 251 214 181 186 185 176 181 177 174 174 174 174 174 176 176 176 171 170 177 183 189 197 199 207 211 212 212 204 208 204 199
237 234 230 230 235 241 235 239 242 253 261 262 249 241 220 210 175 163 165 163 165 173 174 173 172 167 171 177 174 171 170 176 183 188 193 195 201 208 209 213 220 204 209 204
251 248 231 222 227 238 244 243 248 254 254 261 253 238 229 188 159 149 140 143 158 168 171 169 167 167 167 171 169 169 166 173 181 186 186 191 196 205 213 203 206 216 215 199
264 274 252 221 222 232 245 254 254 254 261 261 245 227 208 164 163 144 132 127 131 158 161 163 163 166 169 171 165 161 161 170 179 184 190 192 193 198 208 208 208 211 211 206
257 265 262 243 224 231 228 238 247 259 263 264 260 229 155 121 160 154 141 120 119 123 151 153 155 159 162 163 162 164 163 169 176 186 192 192 188 194 198 201 207 211 213 199
253 257 263 258 247 233 242 239 237 240 251 265 271 247 143 117 128 139 120 96 93 97 110 133 140 139 149 158 163 166 172 178 182 184 184 191 187 190 198 203 202 199 201 201
294 262 256 252 245 234 236 244 243 243 248 253 259 225 177 148 137 126 109 103 98 94 94 107 121 135 148 156 158 165 179 183 182 180 180 185 193 197 202 202 198 197 197 203
293 268 260 258 259 255 240 241 242 243 245 249 247 220 188 142 103 83 83 89 87 91 90 99 106 106 114 131 138 153 171 180 181 182 185 185 194 201 205 206 198 195 196 200
267 261 262 268 271 271 260 250 242 240 248 256 249 220 182 135 113 97 79 72 74 79 84 84 92 97 110 116 125 142 161 168 180 182 191 189 190 198 203 201 200 199 201 202
252 275 278 271 268 268 268 260 254 249 249 248 250 242 157 121 97 109 107 100 77 64 58 62 79 100 106 123 144 152 171 179 182 185 196 190 187 190 192 195 197 197 195 199
260 266 271 268 268 266 256 259 259 256 253 252 247 214 141 126 91 78 70 86 84 77 51 31 42 76 136 139 139 168 179 184 192 196 195 186 188 191 190 194 192 194 195 194
260 270 269 266 267 258 259 265 264 262 261 254 198 129 112 89 94 84 70 76 72 61 61 42 11 5 21 49 49 326 213 189 193 204 205 187 186 192 194 197 196 199 196 195
247 243 252 257 255 253 251 254 254 256 261 294 164 142 137 152 134 93 62 45 45 41 43 29 358 343 0 354 336 309 253 220 207 206 210 199 195 201 203 202 201 199 196 199
233 222 238 251 257 257 269 308 313 272 222 22 49 155 347 345 240 83 39 19 23 29 31 12 351 347 350 348 320 289 271 255 239 229 219 207 200 205 208 204 194 190 195 201
218 217 228 244 254 259 304 323 292 257 46 26 18 21 10 6 358 356 22 36 26 15 3 356 357 346 347 335 312 280 277 267 270 275 247 224 203 204 203 192 191 188 189 188
230 224 225 238 251 256 11 9 21 29 20 20 12 9 16 22 1 342 7 36 22 7 356 349 354 350 347 335 314 291 282 290 291 279 265 249 234 232 209 191 197 193 191 187
247 264 276 273 259 73 45 52 45 23 5 354 356 355 351 342 332 337 2 19 9 359 350 344 343 345 344 338 325 301 303 308 300 285 262 250 249 237 200 186 190 184 186 198
261 280 268 270 219 23 36 25 23 16 357 347 338 336 335 326 323 326 349 359 354 348 340 335 335 335 333 334 327 315 310 301 286 279 271 251 231 223 196 184 186 183 193 203
312 307 283 259 259 298 350 348 357 350 338 334 333 332 328 323 323 324 333 341 331 317 318 319 315 309 307 312 311 310 313 312 292 281 259 239 231 206 189 187 220 200 180 200
295 290 285 296 347 334 324 332 341 337 330 328 326 327 332 329 326 327 318 318 315 311 316 307 300 300 299 297 295 295 298 290 276 268 259 248 237 216 196 174 143 54 145 162